Location: Argenton
(47.0443°N, 0.2618°W)
Time: 18:04:11
(UTC+00:00)

Daily predictions for brighter satellites

Satellite Brightness Start Highest point End
(mag) Time Altitude Azimuth Time Altitude Azimuth Time Altitude Azimuth
Cosmos 1420 Rocket 4.3 18:02:26 10° SSW 18:07:45 77° WNW 18:13:07 10° NNE
FALCON 9 DEB 4.2 18:09:45 10° SSW 18:12:29 26° SE 18:15:13 10° E
USA 306 3.8 18:08:45 10° SSW 18:12:34 32° SE 18:16:23 10° ENE
Cosmos 2227 Rocket 3.0 18:09:57 10° NW 18:15:31 58° WSW 18:21:02 10° S
Cosmos 1939 Rocket 3.8 18:12:37 10° S 18:16:23 51° W 18:20:10 10° NNW
USA 308 3.8 18:12:36 10° SSW 18:16:27 33° SE 18:20:17 10° ENE
Cosmos 1743 Rocket 3.5 18:14:49 10° S 18:19:08 70° E 18:23:32 10° NNE
Cosmos 1805 Rocket 4.0 18:16:15 10° SSE 18:20:16 38° E 18:24:21 10° NNE
H-2A R/B 3.2 18:16:57 10° N 18:20:53 45° WNW 18:24:47 10° SW
Cosmos 1850 Rocket 4.0 18:16:54 10° NNW 18:22:07 84° ENE 18:27:19 10° SSE
Meteor 1-27 Rocket 3.7 18:19:46 10° N 18:25:14 57° ENE 18:30:39 10° SSE
H-2A R/B 2.2 18:21:19 10° SSE 18:26:40 68° ENE 18:32:06 10° N
ARGOS 3.4 18:22:21 10° SE 18:27:33 49° ENE 18:32:47 10° N
Cosmos 1862 3.5 18:24:01 10° SSW 18:28:01 77° W 18:32:06 10° N
Cosmos 2228 Rocket 3.1 18:23:48 10° N 18:28:22 73° E 18:32:50 10° SSE
Aureole 1 Rocket 4.3 18:22:23 10° NNW 18:30:02 82° WSW 18:35:57 10° SSE
Cosmos 2278 4.0 18:25:12 10° S 18:30:35 48° ESE 18:36:03 10° NE
Cosmos 1271 Rocket 3.7 18:27:47 10° NNE 18:30:56 25° ENE 18:34:03 10° SE
COSMOS 2455 2.9 18:25:06 10° NNW 18:31:06 63° NE 18:37:03 10° SE
FALCON 9 DEB 3.4 18:28:05 10° SW 18:31:07 42° SE 18:33:30 15° ENE
SL-08 RB Rocket 4.3 18:28:19 10° SE 18:32:23 35° ENE 18:36:31 10° N
Cosmos 2297 Rocket 4.1 18:27:51 10° NW 18:32:52 34° WSW 18:37:52 10° SSW
HJ-1C 3.7 18:31:55 10° SE 18:35:06 42° ENE 18:38:16 10° N
CZ-2D R/B 4.3 18:31:32 10° S 18:35:13 49° W 18:38:55 10° NNW
Cosmos 1812 3.7 18:33:17 10° NNW 18:37:01 51° W 18:40:44 10° S
FALCON 9 DEB 4.4 18:34:32 10° W 18:37:42 34° NNW 18:40:27 13° NE
CZ-2C R/B 3.2 18:33:08 10° NNE 18:38:16 37° E 18:43:16 10° SSE
Cosmos 1689 Rocket 2.2 18:35:49 10° NNE 18:38:35 44° E 18:41:21 10° S
CSL-04 Debris 4.2 18:35:31 10° SSE 18:40:47 57° ENE 18:46:08 10° N
ATLAS 5 CENTAUR R/B 3.8 18:23:28 10° SW 18:41:45 78° NW 18:46:11 10° NE
Cosmos 2084 3.4 18:37:38 10° SSW 18:41:48 67° SE 18:46:06 10° NE
Cosmos 1666 Rocket 4.3 18:38:25 10° SSE 18:42:13 30° E 18:46:02 10° NNE
Cosmos 1709 Rocket 4.2 18:37:01 10° SSW 18:43:09 77° W 18:49:25 10° N
CZ-2C R/B 4.2 18:37:47 10° S 18:43:28 54° W 18:49:02 10° NNW
BREEZE-M DEB (TANK) 1.4 18:42:01 10° WSW 18:44:10 79° NNW 18:46:16 18° ENE
Cosmos 1844 Rocket 4.3 18:41:42 10° N 18:45:01 16° NE 18:47:04 13° ENE
Gbstr 26 Del rocket 3.7 18:41:42 10° SSW 18:45:50 44° SE 18:49:30 17° ENE
Cosmos 1331 Rocket 4.0 18:40:44 10° S 18:45:54 59° ESE 18:51:05 10° NNE
Cosmos 2181 Rocket 4.1 18:39:27 10° N 18:45:58 85° E 18:52:23 10° S
NOSS 2-1 (C) 4.2 18:41:19 10° NW 18:46:12 75° NE 18:53:06 10° SE
CSL-04 Rocket 3.7 18:42:42 10° SSE 18:48:10 61° ENE 18:53:39 10° N
Cosmos 1242 Rocket 4.3 18:45:21 10° NNW 18:48:38 36° W 18:51:55 10° SSW
Cosmos 292 Rocket 3.8 18:44:21 10° SSW 18:49:06 86° WNW 18:53:53 10° NNE
TSX-5 3.8 18:44:43 10° NNW 18:49:21 66° ENE 18:52:49 11° SE
NOSS 2-1 (D) 4.2 18:47:23 10° NW 18:52:19 82° NE 18:59:20 10° SE
FALCON 9 DEB 3.0 18:52:24 10° SW 18:55:34 61° SE 18:56:59 29° ENE
COSMO-SKYMED 1 4.0 18:52:14 10° N 18:56:18 40° WNW 19:00:21 10° SW
YAOGAN 1 2.9 18:52:29 10° S 18:56:47 68° WSW 19:01:07 10° NNW
Helios 1A Rocket 2.8 18:53:12 10° SSE 18:57:16 79° ENE 19:01:21 10° NNW
Okean-O 3.0 18:53:44 10° S 18:58:08 68° WSW 19:02:34 10° NNW
Cosmos 220 Rocket 3.8 18:56:41 10° SSW 19:00:54 83° ESE 19:05:09 10° NNE
SL-4 R/B 1.8 18:58:00 10° WSW 19:01:33 67° NNW 19:03:19 26° NE
FALCON 9 DEB 2.8 19:00:49 10° WSW 19:03:58 85° SSE 19:05:10 35° ENE
Cosmos 1980 Rocket 2.2 19:00:10 10° SSW 19:05:50 89° WNW 19:11:34 10° NNE
APEX 3.7 19:03:25 10° N 19:05:43 26° NE 19:05:43 26° NE
Lacrosse 5 rocket 2.5 19:02:45 10° WNW 19:06:55 42° SW 19:10:53 10° SSE
Sich 1 3.0 19:04:07 10° S 19:08:29 89° WNW 19:12:55 10° N
CZ-4B R/B 4.1 19:07:47 10° NNW 19:10:03 19° WNW 19:12:19 10° WSW
Cosmos 1302 Rocket 4.0 19:08:56 10° S 19:13:58 52° ESE 19:19:01 10° NNE
Cosmos 2322 Rocket 3.0 19:10:55 10° SSE 19:15:03 27° ESE 19:15:03 27° ESE
Cosmos 2227 4.2 19:09:45 10° NNW 19:15:33 75° ENE 19:20:30 14° SSE
Cosmos 968 Rocket 3.8 19:11:48 10° NNW 19:16:53 47° ENE 19:19:11 29° ESE
Cosmos 1437 2.8 19:16:02 10° NNW 19:18:55 64° W 19:21:07 15° S
Cosmos 1707 Rocket 3.6 19:15:01 10° N 19:19:28 82° W 19:23:49 10° S
Cosmos 1867 3.6 19:17:22 10° SW 19:22:49 85° NW 19:28:07 11° NE
ERS-2 3.2 19:20:09 10° N 19:23:40 45° WNW 19:27:09 10° SW
Cosmos 1633 Rocket 2.9 19:20:13 10° S 19:24:36 70° E 19:29:01 10° NNE
Meteor 1-20 Rocket 4.0 19:23:02 10° S 19:28:29 81° E 19:33:59 10° NNE
Cosmos 1697 Rocket 4.2 19:25:16 10° WSW 19:30:27 36° NW 19:35:39 10° NNE
USA 234 3.3 19:29:23 18° NE 19:34:33 80° NNW 19:41:05 10° WSW
SL-16 R/B 2.3 19:29:22 10° S 19:34:46 48° ESE 19:37:13 29° NE
Meteor 1-19 Rocket 4.2 19:31:37 10° N 19:37:40 75° ENE 19:42:35 15° SSE
USA 305 3.0 19:33:53 10° WSW 19:38:09 71° NNW 19:39:15 47° NE
MOS 1 4.2 19:39:28 33° SE 19:42:02 64° ENE 19:47:40 10° N
Cosmos 2327 Rocket 4.4 19:35:46 10° S 19:42:09 79° E 19:48:28 10° N
CZ-4 R/B 4.3 19:39:34 10° SW 19:42:11 17° W 19:44:49 10° NW
Resurs 01 Rocket 3.3 19:44:38 20° NNE 19:44:38 20° NNE 19:46:23 10° N
SeaSat 1 3.8 19:39:18 10° NNE 19:43:53 39° NW 19:48:27 10° WSW
Ariane Rocket 2.9 19:43:24 45° SE 19:44:51 66° ENE 19:49:55 10° N
DMSP B5D2-2 4.0 19:40:41 10° NNE 19:45:58 89° ESE 19:51:11 10° SSW
USA 307 3.1 19:41:44 10° WSW 19:45:59 67° NNW 19:46:43 54° NNE
FALCON 9 DEB 4.0 19:45:06 10° WSW 19:47:39 45° WNW 19:47:39 45° WNW
Nadezhda 3 Rocket 4.0 19:41:56 10° N 19:48:19 89° W 19:54:42 10° S
Cosmos 2154 Rocket 3.9 19:42:28 10° S 19:48:43 87° E 19:54:57 10° N
IRS-1A Rocket 4.1 19:47:27 33° SSE 19:50:09 76° ENE 19:55:46 10° NNW
Cosmos 2263 Rocket 2.7 19:46:16 10° NW 19:51:44 57° WSW 19:55:56 17° S
USA 306 3.2 19:48:09 10° WSW 19:52:22 61° NNW 19:52:52 55° N
USA 308 3.2 19:52:04 10° WSW 19:56:17 60° NNW 19:56:36 58° N
Cosmos 1470 Rocket 3.5 19:52:12 10° S 19:56:48 83° NE 20:01:10 10° N
Cosmos 1515 4.0 19:53:22 10° NNW 19:57:10 63° W 19:57:16 62° WSW
Meteor 1-14 Rocket 4.0 19:53:36 10° S 19:59:11 71° E 20:04:43 10° NNE
OBJECT-B 3.3 20:05:18 18° NNW 20:05:18 18° NNW 20:06:13 10° NNW
SJ-6B 3.3 20:04:14 60° SW 20:04:31 62° WSW 20:08:37 10° NNW
Meteor 2-4 Rocket 3.6 20:05:22 10° N 20:11:09 82° E 20:11:52 69° SSE
GP-B 3.6 20:10:27 41° SW 20:11:43 59° W 20:16:08 10° N
Okean 1 4.4 20:10:20 10° NNW 20:14:08 42° W 20:14:32 40° WSW
Cosmos 1461 3.6 20:10:06 10° SW 20:13:50 56° SW 20:13:50 56° SW
Cosmos 1932 4.4 20:09:32 10° SW 20:16:02 90° ESE 20:18:17 44° NE
BREEZE-M DEB (TANK) 4.2 19:57:27 10° W 20:16:07 84° S 20:17:22 62° ESE
CZ-2C R/B 4.2 20:13:29 10° N 20:18:31 36° WNW 20:23:27 10° SW
Cosmos 1844 4.3 20:13:24 10° NNW 20:18:00 44° NNE 20:18:00 44° NNE
Cosmos 44 Rocket 3.6 20:15:24 10° NW 20:19:59 67° NNW 20:19:59 67° NNW
Cosmos 2278 Rocket 4.2 20:24:16 10° N 20:26:30 17° NNE 20:26:30 17° NNE
Cosmos 1844 Rocket 3.1 20:24:26 10° NNW 20:28:44 51° N 20:28:44 51° N
SPOT 3 Rocket 4.3 20:34:11 47° NNW 20:34:11 47° NNW 20:37:51 10° NNW
Gbstr 26 Del rocket 3.9 20:27:57 10° W 20:32:04 59° NW 20:32:04 59° NW
Cosmos 2341 Rocket 4.0 20:31:12 42° SSW 20:33:32 82° W 20:39:53 10° N
Cosmos 2322 Rocket 3.5 20:53:47 10° SW 20:57:03 34° WSW 20:57:03 34° WSW
USA 234 4.1 21:16:43 42° N 21:17:07 42° NNW 21:23:10 10° W
Resurs 01 Rocket 4.4 21:22:11 15° NW 21:22:11 15° NW 21:23:01 10° NNW
SL-16 R/B 3.7 21:14:00 10° WSW 21:19:03 33° NW 21:19:19 33° NW
